Location: Frydek-Mistek
(49.6830°N, 18.3330°E)
Time: 23:14:56
(UTC+01:00)

Courier 1B Rocket - All Passes

Search period start: 21 December 2014 00:00
Search period end: 31 December 2014 00:00
Orbit: 920 x 1202 km, 28.2° (Epoch: 21 December)

Date Brightness Start Highest point End Pass type
(mag) Time Alt. Az. Time Alt. Az. Time Alt. Az.
21 Dec - 04:32:46 10° S 04:33:53 10° S 04:35:01 10° SSE visible
22 Dec - 05:24:30 10° SSW 05:25:19 10° S 05:26:09 10° S visible
23 Dec - 04:24:00 10° S 04:24:48 10° S 04:25:35 10° S visible
